GPS BIIRM-5 (PRN 29)

Last updated on Sat Mar 14 2026 00:03:24 GMT+0000 (Coordinated Universal Time)

1 32384U 07062A 26072.05935947 .00000029 00000+0 00000+0 0 9993 2 32384 55.1084 278.0153 0033186 160.7725 12.4048 2.00554193133588
UTC large
Height (km)
Speed (km/s)
/
Latitude / Longitude
Inclination (degrees)
Orbital Period (minutes)
Azimuth
Elevation
Range (km)
Doppler Factor

Next 0 passes for location: London (51.5072 / 0.1276)

Sorry there are no passes over London.